"Pseudo-MPEC" for C3LRAG2

Created 2020 Oct 19 5:07:18 UT using Find_Orb

Click here for an explanation of pseudo-MPECs

 
 Astrometry: 
     C3LRAG2  C2020 10 10'c0Astrometry'dTY7WpNFbtQZkL(+6G8A9/KY9/6ALjU[(fRVfnF51
     C3LRAG2  C2020 10 14*qNOC0[31MT%]Z^viNqpNs`]Uh#axi/)`]2^GmqYA8X:vT]$S,S:F52
     C3LRAG2  C2020 10 14j.(mI'7Xdwov[qD-Pe3BCMQ0v1(eXLM:@wA1U_b%6DvZQyHvE@M/F52
     C3LRAG2  C2020 10 149MD$_qQkNu^[dcKb__me8e340S;@ITGmX-0-c8(?vredacted;=^F52
     C3LRAG2  C2020 10 17.41029704 42 26.69 -01 28 48.0    ~AHB7 22.10GVNEOCPG96
     C3LRAG2  C2020 10 17.41544904 42 27.09 -01 28 35.5    ~AHB7 21.57GVNEOCPG96
     C3LRAG2  C2020 10 17.42059704 42 27.48 -01 28 23.2    ~AHB7 20.76GVNEOCPG96
     C3LRAG2  C2020 10 17.42574404 42 27.89 -01 28 10.5    ~AHB7 20.67GVNEOCPG96
     C3LRAG2 HC2020 10 17.45101504 42 29.88 -01 27 08.6    ~AHBM 20.90GVNEOCPG96
     C3LRAG2 HC2020 10 17.45176804 42 29.93 -01 27 06.9    ~AHBM 21.15GVNEOCPG96
     C3LRAG2 HC2020 10 17.45252104 42 29.99 -01 27 05.0    ~AHBM 21.01GVNEOCPG96
     C3LRAG2 KC2020 10 17.50347804 42 34.11 -01 24 58.8    ~AHCM 20.87GVNEOCPV06
     C3LRAG2 KC2020 10 17.50506304 42 34.23 -01 24 54.9    ~AHCM 21.26GVNEOCPV06
     C3LRAG2 KC2020 10 17.50664904 42 34.39 -01 24 50.9    ~AHCM 21.39GVNEOCPV06
     C3LRAG2 KC2020 10 18.38904104 44 39.51 -00 45 05.8    ~AI9q 20.57GVNEOCPI52
     C3LRAG2 KC2020 10 18.39211204 44 39.83 -00 44 56.8    ~AI9q 20.66GVNEOCPI52
     C3LRAG2 KC2020 10 18.39518204 44 40.12 -00 44 48.1    ~AI9q 20.52GVNEOCPI52
     C3LRAG2  C2020 10 189BFx'n=?Y*-D7I`#e.6LFYj8/i3m(Vn[7R1O]stg7[EWC[)I[=msF51
     C3LRAG2  C2020 10 183#bFJEVrZn42%doC7je)%0`kCKL`?yMvtaPsAxaS#K#!cclickm@F51
     C3LRAG2  C2020 10 18FLP,Nu)S!DLqHkIWvBRt],R/chere-LVMr\WXd,a=-_jaWlX;5x7F51
     C3LRAG2 pC2020 10 19BMforu(Y^k@d!G6]XnGd/KobfUD(J4[Vbk^u));m*b)gtQh^:`c/L01
     C3LRAG2 pC2020 10 19IO5explanation$Nr(SDL;id6rm+ewGHAy`Y:Fv#oKmMSe0orTA3L01
     C3LRAG2 pC2020 10 19x+#pRb\O/^mP8-c,T_/#dVQAagmocZmH]d!EP.8x8P+!\_`F=%nCL01

Station data:
(F51) Pan-STARRS 1, Haleakala  (N20.707235 W156.255910)  US/Hawaii.
   Observers N. Primak, A. Schultz, S. Watters, J. Thiel, T. Goggia. Measurer
   PS1 Science Consortium. 1.8-m Ritchey-Chrétien + CCD.
(F52) Pan-STARRS 2, Haleakala  (N20.707384 W156.255910)  US/Hawaii. 1.8-m
   Ritchey-Chrétien + CCD.
(G96) Mt. Lemmon Survey  (N32.442754 W110.788720)  US/Arizona.  Observers T.
   A. Pruyne, B. M. Africano, E. J. Christensen, G. A. Farneth, D. C. Fuls,
   A. R. Gibbs, A. D. Grauer, H. Gröller, J. A. Johnson, R. A. Kowalski, S.
   M. Larson, G. J. Leonard, D. Rankin, R. L. Seaman, F. C. Shelly. 1.5-m
   reflector + 10K CCD.
(I52) Steward Observatory, Mt. Lemmon Station  (N32.442547 W110.788920)
   US/Arizona.  Observers T. A. Pruyne, B. M. Africano, E. J. Christensen, G.
   A. Farneth, D. C. Fuls, A. R. Gibbs, A. D. Grauer, H. Gröller, J. A.
   Johnson, R. A. Kowalski, S. M. Larson, G. J. Leonard, D. Rankin, R. L.
   Seaman, F. C. Shelly. 1.0-m reflector + CCD.
(L01) Višnjan Observatory, Tičan  (N45.290900 E13.749300)  Croatia.
   Observers K. Korlević, E. Pettarin. Measurer E. Pettarin. 1.0-m f/2.9
   reflector + CCD.
(V06) Catalina Sky Survey-Kuiper  (N32.416847 W110.732550)  US/Arizona.
   Observers T. A. Pruyne, B. M. Africano, E. J. Christensen, G. A. Farneth,
   D. C. Fuls, A. R. Gibbs, A. D. Grauer, H. Gröller, J. A. Johnson, R. A.
   Kowalski, S. M. Larson, G. J. Leonard, D. Rankin, R. L. Seaman, F. C.
   Shelly. 1.55-m reflector + CCD.

Orbital elements:  C3LRAG2
   Perihelion 2021 Jan 19.184490 +/- 0.074 TT =  4:25:40 (JD 2459233.684490)
Epoch 2020 Oct 19.0 TT = JDT 2459141.5   Earth MOID: 0.0057   Ve: 0.0666
M 248.83134855 +/- 0.07             (J2000 ecliptic)          AutoNEOCP
n   1.20593660 +/- 0.000107         Peri.  133.23395 +/- 0.006
a   0.87415087 +/- 5.16e-5          Node    33.79743 +/- 0.0025
e   0.3134987 +/- 0.000636          Incl.   11.21292 +/- 0.031
P   0.82/298.52d           H 25.5   G  0.15   U  6.6  
q 0.60010564 +/- 0.00059    Q 1.14819610 +/- 0.00049
From 23 observations 2020 Oct. 10-19; mean residual 0".23
Residuals in arcseconds: 
201010 F51  .11+  .21-    201017 G96  .03+  .03+    201018 I52  .45+  .62-    
201014 F52  .00   .01+    201017 G96  .12-  .12-    201018 F51  .01+  .01+    
201014 F52  .12+  .10-    201017 G96  .11-  .08-    201018 F51  .04-  .02+    
201014 F52  .32-  .60+    201017 V06  .08-  .10+    201018 F51  .02+  .05-    
201017 G96  .10+  .20+    201017 V06  .28-  .05+    201019 L01  .26+  .60+    
201017 G96  .03+  .15+    201017 V06  .12+  .11+    201019 L01  .29-  .16-    
201017 G96  .17-  .10-    201018 I52  .05-  .25-    201019 L01  .28-  .19+    
201017 G96  .07-  .03+    201018 I52  .42+  .28-    

Ephemerides (geocentric):
Date (UTC) HH   RA              Dec         delta   r     elong  mag " sig PA
---- -- -- --  -------------   -----------  ------ ------ -----  --- ---- ---
2020 10 19 05  04 46 43.638   +00 00 05.68  .05509 1.0334 131.6 21.1 .309 174
2020 10 19 06  04 46 50.530   +00 02 31.98  .05485 1.0333 131.6 21.1 .315 174
2020 10 19 07  04 46 57.472   +00 04 59.59  .05461 1.0331 131.7 21.1 .322 174
2020 10 19 08  04 47 04.465   +00 07 28.54  .05437 1.0329 131.7 21.0 .329 174
2020 10 19 09  04 47 11.510   +00 09 58.84  .05414 1.0328 131.7 21.0 .336 174
2020 10 19 10  04 47 18.608   +00 12 30.51  .05390 1.0326 131.7 21.0 .343 173
2020 10 19 11  04 47 25.758   +00 15 03.58  .05366 1.0324 131.7 21.0 .350 173
2020 10 19 12  04 47 32.962   +00 17 38.04  .05342 1.0323 131.7 21.0 .358 173
2020 10 19 13  04 47 40.221   +00 20 13.93  .05318 1.0321 131.8 21.0 .366 173
2020 10 19 14  04 47 47.535   +00 22 51.27  .05294 1.0319 131.8 21.0 .373 173
2020 10 19 15  04 47 54.906   +00 25 30.06  .05270 1.0318 131.8 21.0 .381 173
2020 10 19 16  04 48 02.333   +00 28 10.34  .05247 1.0316 131.8 21.0 .390 173
2020 10 19 17  04 48 09.819   +00 30 52.12  .05223 1.0314 131.8 21.0 .398 173
2020 10 19 18  04 48 17.363   +00 33 35.42  .05199 1.0313 131.8 20.9 .406 173
2020 10 19 19  04 48 24.966   +00 36 20.26  .05175 1.0311 131.9 20.9 .415 173
2020 10 19 20  04 48 32.630   +00 39 06.67  .05151 1.0309 131.9 20.9 .424 173
2020 10 19 21  04 48 40.355   +00 41 54.65  .05128 1.0308 131.9 20.9 .433 173
2020 10 19 22  04 48 48.143   +00 44 44.24  .05104 1.0306 131.9 20.9 .442 173
2020 10 19 23  04 48 55.993   +00 47 35.46  .05080 1.0304 131.9 20.9 .452 173
2020 10 20 00  04 49 03.908   +00 50 28.33  .05056 1.0303 131.9 20.9 .462 173
2020 10 20 01  04 49 11.887   +00 53 22.87  .05032 1.0301 131.9 20.9 .471 173
2020 10 20 02  04 49 19.933   +00 56 19.10  .05009 1.0299 132.0 20.9 .482 173
2020 10 20 03  04 49 28.045   +00 59 17.06  .04985 1.0298 132.0 20.8 .492 173
2020 10 20 04  04 49 36.226   +01 02 16.75  .04961 1.0296 132.0 20.8 .503 173
2020 10 20 05  04 49 44.475   +01 05 18.21  .04937 1.0294 132.0 20.8 .513 173
2020 10 20 06  04 49 52.794   +01 08 21.46  .04914 1.0293 132.0 20.8 .524 173
2020 10 20 07  04 50 01.185   +01 11 26.53  .04890 1.0291 132.0 20.8 .536 173
2020 10 20 08  04 50 09.647   +01 14 33.44  .04866 1.0289 132.0 20.8 .547 173
2020 10 20 09  04 50 18.183   +01 17 42.22  .04843 1.0287 132.1 20.8 .559 173
2020 10 20 10  04 50 26.794   +01 20 52.89  .04819 1.0286 132.1 20.8 .571 173
2020 10 20 11  04 50 35.480   +01 24 05.49  .04795 1.0284 132.1 20.8 .583 174
2020 10 20 12  04 50 44.242   +01 27 20.04  .04771 1.0282 132.1 20.7 .596 174
2020 10 20 13  04 50 53.083   +01 30 36.56  .04748 1.0281 132.1 20.7 .608 174
2020 10 20 14  04 51 02.003   +01 33 55.10  .04724 1.0279 132.1 20.7 .621 174
2020 10 20 15  04 51 11.003   +01 37 15.67  .04700 1.0277 132.1 20.7 .635 174
2020 10 20 16  04 51 20.085   +01 40 38.30  .04677 1.0276 132.1 20.7 .648 174
2020 10 20 17  04 51 29.250   +01 44 03.03  .04653 1.0274 132.2 20.7 .662 174
2020 10 20 18  04 51 38.499   +01 47 29.90  .04629 1.0272 132.2 20.7 .677 174
2020 10 20 19  04 51 47.834   +01 50 58.92  .04606 1.0271 132.2 20.7 .691 175
2020 10 20 20  04 51 57.256   +01 54 30.13  .04582 1.0269 132.2 20.7 .706 175
2020 10 20 21  04 52 06.766   +01 58 03.57  .04559 1.0267 132.2 20.6 .721 175
2020 10 20 22  04 52 16.366   +02 01 39.26  .04535 1.0265 132.2 20.6 .737 175
2020 10 20 23  04 52 26.057   +02 05 17.25  .04511 1.0264 132.2 20.6 .753 175
2020 10 21 00  04 52 35.842   +02 08 57.57  .04488 1.0262 132.2 20.6 .769 175
2020 10 21 01  04 52 45.720   +02 12 40.25  .04464 1.0260 132.2 20.6 .786 175
2020 10 21 02  04 52 55.695   +02 16 25.33  .04441 1.0259 132.3 20.6 .803 176
2020 10 21 03  04 53 05.767   +02 20 12.85  .04417 1.0257 132.3 20.6 .820 176
2020 10 21 04  04 53 15.938   +02 24 02.84  .04393 1.0255 132.3 20.6 .838 176